Location: Caltech
(34.1382°N, 118.1253°W)
Time: 22:33:58
(UTC-07:00)

Oscar 11 - Visible Passes

Search period start: 31 May 2016 00:00
Search period end: 10 June 2016 00:00
Orbit: 614 x 627 km, 97.8° (Epoch: 31 May)

Date Brightness Start Highest point End Pass type
(mag) Time Alt. Az. Time Alt. Az. Time Alt. Az.
31 May 7.1 21:19:09 22° SSE 21:21:48 64° ENE 21:26:03 10° N visible
01 Jun 7.1 21:36:45 25° S 21:39:13 77° W 21:43:32 10° NNW visible
02 Jun 7.9 21:54:22 23° SSW 21:56:41 46° W 22:00:51 10° NNW visible
03 Jun 8.6 20:35:10 10° ESE 20:38:17 20° ENE 20:41:25 10° NNE visible
03 Jun 8.7 22:11:58 18° SW 22:14:12 28° W 22:17:56 10° NW visible
04 Jun 8.0 20:52:23 13° SE 20:55:36 31° ENE 20:59:24 10° N visible
04 Jun 9.4 22:29:34 13° SW 22:31:45 18° W 22:34:41 10° NW visible
05 Jun 7.4 21:10:00 18° SE 21:12:58 50° ENE 21:17:09 10° N visible
05 Jun 9.8 22:48:17 10° WSW 22:49:20 11° W 22:50:24 10° WNW visible
06 Jun 7.0 21:27:36 22° SSE 21:30:22 83° ENE 21:34:43 10° N visible
07 Jun 7.5 21:45:12 22° S 21:47:49 59° W 21:52:06 10° NNW visible
08 Jun 8.9 20:26:53 10° ESE 20:29:31 16° ENE 20:32:09 10° NNE visible
08 Jun 8.3 22:02:49 19° SSW 22:05:19 36° W 22:09:18 10° NNW visible
09 Jun 8.3 20:43:19 10° SE 20:46:48 25° ENE 20:50:20 10° NNE visible
09 Jun 9.1 22:20:25 14° SW 22:22:51 22° W 22:26:14 10° NW visible
